THOR ABLESTAR DEB, 1099

Orbit data source: Space-Track

THOR ABLESTAR DEB, 1099 is space debris in LEO originally from a launch on Sun, 13 Dec 1964 UTC launched from the Air Force Western Test Range (AFWTR). Debris objects in space refer to the collection of defunct objects orbiting the Earth. Examples of debris include non-operational satellites, rocket bodies, and fragments generated from explosions, collisions, or faulty payload assembly.

Loading next visibility...
Identifier
1099, 1964-083G
Orbit
LEO
Last TLE update
10 hours ago
Origin
Manufacturer
Unknown
Mission
Spacecraft
Bus & Motor
Unknown
Mass
Unknown
Launch date (UTC)
1964-12-13 (60 years ago)
Launch vehicle
Unknown
Launch site
Air Force Western Test Range (AFWTR)
Object type
Payload
Rocket body
Debris
Shape & HBR
Unknown
Radar Cross Section
0.550 m², Medium (>0.1 m² and < 1m²)

Expand to show TLE details & history

TLE from 10 hours ago
0 THOR ABLESTAR DEB
1 01099U 64083G   25128.93902625  .00000241  00000-0  29454-3 0  9998
2 01099  89.8290 145.4285 0041028  40.2343   4.5466 13.62678166927354
Epoch: 2025-05-08T22:32Z
Definitive object data (Epoch: 2025-05-08T22:32:11.868Z)
Latitude
44.90773°
Longitude
-59.45372°
Altitude
1,002.54 km
Speed
7.37 km/s
True Right ascension
09h 42m 23s
True Declination
44° 44' 29"
Sunlit
Object was in daylight at TLE epoch
Visualization TLE readout
Latitude
-32.75907°
Longitude
-59.74023°
Altitude
1,028.585 km
Speed
7.341 km/s
Apparent Right ascension
07h 37m 10s
Apparent Declination
-41° 42' 48"
Sunlit
Object is in daylight
Visualization observer readout
Local Sidereal Time
16:53:16
Azimuth
253.1° W
Elevation
-59.229°
Doppler factor
1
Orbital elements
Apogee altitude
1,053.372 km
Perigee altitude
992.641 km
Semi-major axis
7,401.143 km
Eccentricity
0.0041028
Inclination
89.829°
RAAN
145.4285°
Arg. of periapsis
40.2343°
True anomaly
4.58406°
Mean anomaly
4.5466°
Eccentric anomaly
4.56531°
Mean motion
3.40875 °/min
BSTAR
0.00029454
Orbital period
105.61 mins
Loading maneuver chart data...
Loading SW <> Apogee altitude chart data...

THOR ABLESTAR DEB Visibility forecast

Observer location: undefined°, undefined°

Span
Click to sort rows by Start time (UTC) header in descending order
Start Az.
Max El. time (UTC)
Max El. Az.
Max El.
End time (UTC)
End Az.
12 mins2025-05-09 13:00:03.347Z10.849° NNE2025-05-09 13:06:03.347Z91.952° ESE40.346°2025-05-09 13:12:03.347Z167.178° S
7 mins2025-05-09 14:48:03.347Z319.401° NNW2025-05-09 14:51:03.347Z284.711° WNW20.183°2025-05-09 14:55:03.347Z242.996° WSW
9 mins2025-05-10 00:53:03.347Z146.499° SSE2025-05-10 00:57:03.347Z80.388° E37.118°2025-05-10 01:02:03.347Z12.11° NNE
8 mins2025-05-10 02:39:03.347Z235.131° WSW2025-05-10 02:43:03.347Z282.829° WNW21.963°2025-05-10 02:47:03.347Z326.847° NNW
|